Flag for Germany Weather past 2 weeks in Minden, North Rhine-Westphalia, Germany

43 °F

Passing clouds.

Feels Like: 36 °F
Forecast: 48 / 51 °F
Wind: 12 mph from Northwest

Location: Bueckeburg

Current Time: Dec 1, 2015 at 8:48:17 AM

Latest Report: Dec 1, 2015 at 7:20 AM

Visibility: N/A

Pressure: 30.09 "Hg

Humidity: 87%

Dew point: 39 °F

Location of MindenLocation

Historic Weather in Minden — Graph


Minden temperature yesterday

Maximum temperature yesterday: 52 °F (at 11:20 PM)
Minimum temperature yesterday: 39 °F (at 3:20 PM)
Average temperature yesterday: 46 °F

Past Weeks' High & Low Weather Summary

High59 °F (Nov 17, 9:48 PM)100% (Nov 16, 9:49 PM)30.21 "Hg (Nov 16, 9:49 PM)
Low32 °F (Nov 22, 1:20 AM)57% (Nov 24, 2:20 PM)29.33 "Hg (Nov 21, 5:20 AM)
Average44 °F84%29.77 "Hg
* Reported Nov 16 7:20 AM — Dec 1 7:20 AM, Minden, Weather by CustomWeather, © 2015

Note: Actual official high and low records may vary slightly from our data, if they occured in-between our weather recording intervals... More about our weather records


Minden weather history for previous 24 hours

Time TempWeatherWind HumidityBarometerVisibility
7:20 AM
Tue, Dec 1
43 °FPassing clouds.12 mph87%30.09 "HgN/A
6:20 AM43 °FPassing clouds.12 mph87%30.07 "HgN/A
5:20 AM43 °FPassing clouds.12 mph87%30.04 "HgN/A
4:20 AM45 °FPassing clouds.9 mph87%30.04 "HgN/A
3:20 AM45 °FPassing clouds.9 mph87%29.98 "HgN/A
2:20 AM45 °FPassing clouds.12 mph87%29.95 "HgN/A
1:20 AM48 °FPassing clouds.16 mph82%29.89 "HgN/A
12:20 AM54 °FPassing clouds.24 mph88%29.80 "HgN/A
11:20 PM
Mon, Nov 30
52 °FPassing clouds.22 mph94%29.74 "Hg5 mi
10:20 PM50 °FPassing clouds.24 mph94%29.71 "Hg5 mi
9:20 PM50 °FLight rain. Passing clouds.22 mph94%29.68 "HgN/A
8:20 PM50 °FLight rain. Passing clouds.24 mph94%29.68 "Hg5 mi
7:20 PM50 °FRain. Passing clouds.21 mph88%29.71 "Hg5 mi
6:50 PM50 °FRain. Passing clouds.18 mph88%29.74 "Hg4 mi
6:20 PM48 °FRain. Partly cloudy.18 mph94%29.74 "Hg4 mi
5:20 PM46 °FRain. Mostly cloudy.15 mph87%29.77 "Hg4 mi
4:20 PM39 °FLight rain. Partly cloudy.9 mph100%29.83 "Hg4 mi
3:20 PM39 °FLight rain. Partly sunny.5 mph93%29.86 "HgN/A
2:20 PM41 °FLight rain. Broken clouds.14 mph81%29.92 "HgN/A
1:20 PM45 °FPartly sunny.14 mph66%29.95 "HgN/A
12:20 PM45 °FMore clouds than sun.16 mph66%29.98 "HgN/A
11:20 AM45 °FOvercast.17 mph66%29.98 "HgN/A
10:20 AM45 °FOvercast.17 mph71%30.01 "HgN/A
9:20 AM45 °FBroken clouds.18 mph66%29.98 "HgN/A
8:20 AM45 °FBroken clouds.18 mph66%29.95 "HgN/A
Weather by CustomWeather, © 2015

See weather overviewHow to use our weather pages